Time,TemperatureF,DewpointF,PressureIn,WindDirection,WindDirectionDegrees,WindSpeedMPH,WindSpeedGustMPH,Humidity,HourlyPrecipIn,Conditions,Clouds,dailyrainin,SolarRadiationWatts/m^2,SoftwareType,DateUTC
2013-05-12 00:10:00,69.0,66.0,30.04,SE,142,1.0,-999.0,91,-99.99,,,0.00,0,weatherlink.com 1.10,2013-05-12 04:10:00,
2013-05-12 00:25:00,68.9,66.0,30.04,SE,142,5.0,-999.0,91,-99.99,,,0.00,0,weatherlink.com 1.10,2013-05-12 04:25:00,
2013-05-12 00:40:00,68.7,66.0,30.04,SE,142,2.0,-999.0,91,-99.99,,,0.00,0,weatherlink.com 1.10,2013-05-12 04:40:00,
2013-05-12 00:55:00,68.6,66.0,30.04,SE,142,0.0,-999.0,91,-99.99,,,0.00,0,weatherlink.com 1.10,2013-05-12 04:55:00,
2013-05-12 01:10:00,68.4,66.0,30.04,SE,142,0.0,-999.0,91,-99.99,,,0.00,0,weatherlink.com 1.10,2013-05-12 05:10:00,
2013-05-12 01:25:00,68.3,66.0,30.04,SE,142,4.0,-999.0,92,-99.99,,,0.00,0,weatherlink.com 1.10,2013-05-12 05:25:00,
2013-05-12 01:40:00,68.3,66.0,30.03,SE,142,4.0,-999.0,92,-99.99,,,0.00,0,weatherlink.com 1.10,2013-05-12 05:40:00,
2013-05-12 01:55:00,68.2,66.0,30.02,SE,142,7.0,-999.0,92,-99.99,,,0.00,0,weatherlink.com 1.10,2013-05-12 05:55:00,
2013-05-12 02:10:00,68.3,66.0,30.03,SE,142,7.0,-999.0,93,-99.99,,,0.00,0,weatherlink.com 1.10,2013-05-12 06:10:00,
2013-05-12 02:25:00,68.2,66.0,30.02,SE,142,4.0,-999.0,93,-99.99,,,0.00,0,weatherlink.com 1.10,2013-05-12 06:25:00,
2013-05-12 02:40:00,68.4,67.0,30.00,SE,128,6.0,-999.0,94,-99.99,,,0.00,0,weatherlink.com 1.10,2013-05-12 06:40:00,
2013-05-12 02:55:00,68.3,67.0,30.01,SE,132,2.0,-999.0,94,-99.99,,,0.00,0,weatherlink.com 1.10,2013-05-12 06:55:00,
2013-05-12 03:10:00,68.1,66.0,30.01,SE,132,0.0,-999.0,94,-99.99,,,0.00,0,weatherlink.com 1.10,2013-05-12 07:10:00,
2013-05-12 03:25:00,68.0,66.0,30.01,SE,144,2.0,-999.0,94,-99.99,,,0.00,0,weatherlink.com 1.10,2013-05-12 07:25:00,
2013-05-12 03:40:00,67.9,66.0,29.99,SE,144,1.0,-999.0,94,-99.99,,,0.00,0,weatherlink.com 1.10,2013-05-12 07:40:00,
2013-05-12 03:55:00,68.2,67.0,29.98,SE,144,4.0,-999.0,94,-99.99,,,0.00,0,weatherlink.com 1.10,2013-05-12 07:55:00,
2013-05-12 04:10:00,68.3,67.0,30.00,SE,144,6.0,-999.0,94,-99.99,,,0.00,0,weatherlink.com 1.10,2013-05-12 08:10:00,
2013-05-12 04:25:00,67.8,66.0,30.00,SE,144,5.0,-999.0,94,-99.99,,,0.00,0,weatherlink.com 1.10,2013-05-12 08:25:00,
2013-05-12 04:40:00,67.7,66.0,29.99,SE,144,2.0,-999.0,94,-99.99,,,0.00,0,weatherlink.com 1.10,2013-05-12 08:40:00,
2013-05-12 04:55:00,67.9,66.0,29.99,SE,144,0.0,-999.0,94,-99.99,,,0.00,0,weatherlink.com 1.10,2013-05-12 08:55:00,
2013-05-12 05:10:00,67.9,66.0,29.99,SE,144,4.0,-999.0,94,-99.99,,,0.00,0,weatherlink.com 1.10,2013-05-12 09:10:00,
2013-05-12 05:25:00,67.8,66.0,29.98,SE,144,0.0,-999.0,94,-99.99,,,0.00,0,weatherlink.com 1.10,2013-05-12 09:25:00,
2013-05-12 05:40:00,67.7,66.0,29.99,SE,144,4.0,-999.0,95,-99.99,,,0.00,0,weatherlink.com 1.10,2013-05-12 09:40:00,
2013-05-12 05:55:00,67.6,66.0,29.99,SE,144,0.0,-999.0,95,-99.99,,,0.00,0,weatherlink.com 1.10,2013-05-12 09:55:00,
2013-05-12 06:10:00,67.5,66.0,29.99,SE,144,0.0,-999.0,95,-99.99,,,0.00,0,weatherlink.com 1.10,2013-05-12 10:10:00,
2013-05-12 06:25:00,67.5,66.0,30.00,SE,144,0.0,-999.0,95,-99.99,,,0.00,0,weatherlink.com 1.10,2013-05-12 10:25:00,
2013-05-12 06:40:00,67.4,66.0,30.00,SE,144,5.0,-999.0,95,-99.99,,,0.00,0,weatherlink.com 1.10,2013-05-12 10:40:00,
2013-05-12 06:55:00,67.2,66.0,30.01,SSE,161,5.0,-999.0,95,-99.99,,,0.00,9,weatherlink.com 1.10,2013-05-12 10:55:00,
2013-05-12 07:10:00,67.2,66.0,30.02,SSE,162,2.0,-999.0,95,-99.99,,,0.00,19,weatherlink.com 1.10,2013-05-12 11:10:00,
2013-05-12 07:25:00,67.5,66.0,30.02,South,180,5.0,-999.0,96,-99.99,,,0.00,46,weatherlink.com 1.10,2013-05-12 11:25:00,
2013-05-12 07:40:00,68.0,67.0,30.03,SSW,202,5.0,-999.0,95,-99.99,,,0.00,47,weatherlink.com 1.10,2013-05-12 11:40:00,
2013-05-12 07:55:00,68.2,67.0,30.03,SSW,202,6.0,-999.0,95,-99.99,,,0.00,88,weatherlink.com 1.10,2013-05-12 11:55:00,
2013-05-12 08:10:00,68.5,67.0,30.03,SSW,202,5.0,-999.0,94,-99.99,,,0.00,116,weatherlink.com 1.10,2013-05-12 12:10:00,
2013-05-12 08:25:00,69.4,67.0,30.03,SSW,205,7.0,-999.0,93,-99.99,,,0.00,290,weatherlink.com 1.10,2013-05-12 12:25:00,
2013-05-12 08:40:00,69.9,68.0,30.04,North,360,5.0,-999.0,92,-99.99,,,0.00,169,weatherlink.com 1.10,2013-05-12 12:40:00,
2013-05-12 08:55:00,70.6,68.0,30.04,North,360,5.0,-999.0,90,-99.99,,,0.00,381,weatherlink.com 1.10,2013-05-12 12:55:00,
2013-05-12 09:10:00,71.6,68.0,30.04,SW,215,4.0,-999.0,89,-99.99,,,0.00,295,weatherlink.com 1.10,2013-05-12 13:10:00,
2013-05-12 09:25:00,72.4,68.0,30.04,SW,216,5.0,-999.0,87,-99.99,,,0.00,374,weatherlink.com 1.10,2013-05-12 13:25:00,
2013-05-12 09:40:00,73.6,69.0,30.04,SSW,213,3.0,-999.0,85,-99.99,,,0.00,236,weatherlink.com 1.10,2013-05-12 13:40:00,
2013-05-12 09:55:00,74.4,68.0,30.04,North,360,4.0,-999.0,81,-99.99,,,0.00,185,weatherlink.com 1.10,2013-05-12 13:55:00,
2013-05-12 10:10:00,75.2,69.0,30.04,North,360,6.0,-999.0,81,-99.99,,,0.00,223,weatherlink.com 1.10,2013-05-12 14:10:00,
2013-05-12 10:25:00,76.1,69.0,30.04,North,360,7.0,-999.0,78,-99.99,,,0.00,708,weatherlink.com 1.10,2013-05-12 14:25:00,
2013-05-12 10:40:00,75.8,68.0,30.04,SSW,207,6.0,-999.0,77,-99.99,,,0.00,322,weatherlink.com 1.10,2013-05-12 14:40:00,
2013-05-12 10:55:00,76.1,68.0,30.04,SW,222,7.0,-999.0,77,-99.99,,,0.00,253,weatherlink.com 1.10,2013-05-12 14:55:00,
2013-05-12 11:10:00,76.6,68.0,30.04,SW,223,9.0,-999.0,75,-99.99,,,0.00,737,weatherlink.com 1.10,2013-05-12 15:10:00,
2013-05-12 11:25:00,77.8,69.0,30.03,North,360,9.0,-999.0,74,-99.99,,,0.00,186,weatherlink.com 1.10,2013-05-12 15:25:00,
2013-05-12 11:40:00,77.6,68.0,30.04,SW,215,6.0,-999.0,73,-99.99,,,0.00,939,weatherlink.com 1.10,2013-05-12 15:40:00,
2013-05-12 11:55:00,77.6,68.0,30.04,SW,217,3.0,-999.0,71,-99.99,,,0.00,195,weatherlink.com 1.10,2013-05-12 15:55:00,
2013-05-12 12:10:00,77.5,68.0,30.04,SSW,200,7.0,-999.0,72,-99.99,,,0.00,376,weatherlink.com 1.10,2013-05-12 16:10:00,
2013-05-12 12:25:00,78.5,68.0,30.04,SSW,204,9.0,-999.0,69,-99.99,,,0.00,211,weatherlink.com 1.10,2013-05-12 16:25:00,
2013-05-12 12:40:00,79.1,68.0,30.03,SW,221,4.0,-999.0,68,-99.99,,,0.00,315,weatherlink.com 1.10,2013-05-12 16:40:00,
2013-05-12 12:55:00,79.3,67.0,30.03,SW,233,8.0,-999.0,67,-99.99,,,0.00,856,weatherlink.com 1.10,2013-05-12 16:55:00,
2013-05-12 13:10:00,79.6,67.0,30.02,South,186,6.0,-999.0,65,-99.99,,,0.00,700,weatherlink.com 1.10,2013-05-12 17:10:00,
2013-05-12 13:25:00,80.1,67.0,30.02,South,173,5.0,-999.0,65,-99.99,,,0.00,747,weatherlink.com 1.10,2013-05-12 17:25:00,
2013-05-12 13:40:00,80.9,67.0,30.02,SSE,156,6.0,-999.0,63,-99.99,,,0.00,933,weatherlink.com 1.10,2013-05-12 17:40:00,
2013-05-12 13:55:00,81.8,67.0,30.01,South,171,6.0,-999.0,61,-99.99,,,0.00,258,weatherlink.com 1.10,2013-05-12 17:55:00,
2013-05-12 14:10:00,81.7,66.0,30.01,South,170,7.0,-999.0,60,-99.99,,,0.00,225,weatherlink.com 1.10,2013-05-12 18:10:00,
2013-05-12 14:25:00,82.0,67.0,30.01,SW,226,8.0,-999.0,61,-99.99,,,0.00,814,weatherlink.com 1.10,2013-05-12 18:25:00,
2013-05-12 14:40:00,82.5,66.0,30.01,SSW,195,10.0,-999.0,58,-99.99,,,0.00,997,weatherlink.com 1.10,2013-05-12 18:40:00,
2013-05-12 14:55:00,82.4,66.0,30.01,WSW,241,10.0,-999.0,58,-99.99,,,0.00,860,weatherlink.com 1.10,2013-05-12 18:55:00,
2013-05-12 15:10:00,83.8,67.0,30.00,SW,226,10.0,-999.0,57,-99.99,,,0.00,772,weatherlink.com 1.10,2013-05-12 19:10:00,
2013-05-12 15:25:00,84.0,67.0,29.99,SSW,192,11.0,-999.0,56,-99.99,,,0.00,782,weatherlink.com 1.10,2013-05-12 19:25:00,
2013-05-12 15:40:00,82.5,67.0,29.99,South,189,11.0,-999.0,60,-99.99,,,0.00,710,weatherlink.com 1.10,2013-05-12 19:40:00,
2013-05-12 15:55:00,82.9,65.0,29.98,North,360,10.0,-999.0,55,-99.99,,,0.00,691,weatherlink.com 1.10,2013-05-12 19:55:00,
2013-05-12 16:10:00,83.8,66.0,29.98,SW,216,13.0,-999.0,56,-99.99,,,0.00,687,weatherlink.com 1.10,2013-05-12 20:10:00,
2013-05-12 16:25:00,84.3,66.0,29.98,SSW,193,1.0,-999.0,54,-99.99,,,0.00,148,weatherlink.com 1.10,2013-05-12 20:25:00,
2013-05-12 16:40:00,84.9,66.0,29.98,SW,222,7.0,-999.0,53,-99.99,,,0.00,589,weatherlink.com 1.10,2013-05-12 20:40:00,
2013-05-12 16:55:00,84.4,65.0,29.98,SW,230,12.0,-999.0,53,-99.99,,,0.00,114,weatherlink.com 1.10,2013-05-12 20:55:00,
2013-05-12 17:10:00,83.9,65.0,29.98,SW,214,5.0,-999.0,53,-99.99,,,0.00,176,weatherlink.com 1.10,2013-05-12 21:10:00,
2013-05-12 17:25:00,84.7,65.0,29.98,SW,222,6.0,-999.0,52,-99.99,,,0.00,466,weatherlink.com 1.10,2013-05-12 21:25:00,
2013-05-12 17:40:00,85.2,66.0,29.97,WSW,240,12.0,-999.0,52,-99.99,,,0.00,432,weatherlink.com 1.10,2013-05-12 21:40:00,
2013-05-12 17:55:00,84.4,65.0,29.97,SW,214,9.0,-999.0,52,-99.99,,,0.00,248,weatherlink.com 1.10,2013-05-12 21:55:00,
2013-05-12 18:10:00,84.2,65.0,29.98,South,177,9.0,-999.0,53,-99.99,,,0.00,260,weatherlink.com 1.10,2013-05-12 22:10:00,
2013-05-12 18:25:00,84.1,66.0,29.98,SW,235,5.0,-999.0,54,-99.99,,,0.00,144,weatherlink.com 1.10,2013-05-12 22:25:00,
2013-05-12 18:40:00,83.7,65.0,29.98,WSW,240,6.0,-999.0,54,-99.99,,,0.00,162,weatherlink.com 1.10,2013-05-12 22:40:00,
2013-05-12 18:55:00,83.7,66.0,29.99,SW,229,5.0,-999.0,55,-99.99,,,0.00,146,weatherlink.com 1.10,2013-05-12 22:55:00,
2013-05-12 19:10:00,83.5,66.0,29.98,SW,230,6.0,-999.0,55,-99.99,,,0.00,86,weatherlink.com 1.10,2013-05-12 23:10:00,
2013-05-12 19:25:00,82.9,66.0,29.99,WSW,237,7.0,-999.0,56,-99.99,,,0.00,42,weatherlink.com 1.10,2013-05-12 23:25:00,
2013-05-12 19:40:00,83.1,65.0,29.99,SW,226,2.0,-999.0,55,-99.99,,,0.00,21,weatherlink.com 1.10,2013-05-12 23:40:00,
2013-05-12 19:55:00,82.8,65.0,30.00,SW,233,4.0,-999.0,56,-99.99,,,0.00,7,weatherlink.com 1.10,2013-05-12 23:55:00,
2013-05-12 20:10:00,82.7,65.0,30.01,WSW,244,7.0,-999.0,56,-99.99,,,0.00,0,weatherlink.com 1.10,2013-05-13 00:10:00,
2013-05-12 20:25:00,82.5,66.0,30.01,WSW,240,5.0,-999.0,57,-99.99,,,0.00,0,weatherlink.com 1.10,2013-05-13 00:25:00,
2013-05-12 20:40:00,81.8,63.0,30.02,North,360,5.0,-999.0,54,-99.99,,,0.00,0,weatherlink.com 1.10,2013-05-13 00:40:00,
2013-05-12 20:55:00,81.1,61.0,30.02,North,360,3.0,-999.0,51,-99.99,,,0.00,0,weatherlink.com 1.10,2013-05-13 00:55:00,
2013-05-12 21:10:00,80.8,61.0,30.03,North,360,6.0,-999.0,51,-99.99,,,0.00,0,weatherlink.com 1.10,2013-05-13 01:10:00,
2013-05-12 21:25:00,80.5,61.0,30.04,North,360,3.0,-999.0,52,-99.99,,,0.00,0,weatherlink.com 1.10,2013-05-13 01:25:00,
2013-05-12 21:40:00,79.8,61.0,30.04,North,360,0.0,-999.0,52,-99.99,,,0.00,0,weatherlink.com 1.10,2013-05-13 01:40:00,
2013-05-12 21:55:00,79.5,60.0,30.04,North,360,2.0,-999.0,51,-99.99,,,0.00,0,weatherlink.com 1.10,2013-05-13 01:55:00,
2013-05-12 22:10:00,78.9,61.0,30.06,North,360,0.0,-999.0,55,-99.99,,,0.00,0,weatherlink.com 1.10,2013-05-13 02:10:00,
2013-05-12 22:25:00,78.5,60.0,30.05,North,360,3.0,-999.0,54,-99.99,,,0.00,0,weatherlink.com 1.10,2013-05-13 02:25:00,
2013-05-12 22:40:00,78.1,60.0,30.06,North,360,2.0,-999.0,54,-99.99,,,0.00,0,weatherlink.com 1.10,2013-05-13 02:40:00,
2013-05-12 22:55:00,77.7,59.0,30.06,North,360,1.0,-999.0,53,-99.99,,,0.00,0,weatherlink.com 1.10,2013-05-13 02:55:00,
2013-05-12 23:10:00,77.2,59.0,30.07,North,360,0.0,-999.0,54,-99.99,,,0.00,0,weatherlink.com 1.10,2013-05-13 03:10:00,
2013-05-12 23:25:00,76.4,58.0,30.07,North,360,4.0,-999.0,54,-99.99,,,0.00,0,weatherlink.com 1.10,2013-05-13 03:25:00,
2013-05-12 23:40:00,76.0,58.0,30.06,North,360,0.0,-999.0,54,-99.99,,,0.00,0,weatherlink.com 1.10,2013-05-13 03:40:00,
2013-05-12 23:55:00,76.4,58.0,30.07,North,360,3.0,-999.0,54,-99.99,,,0.00,0,weatherlink.com 1.10,2013-05-13 03:55:00,